Location: Saint Louis
(38.6272°N, 90.1978°W)
Time: 09:42:23
(UTC-05:00)

ISS - Pass Details

Date: 14 June 2013
Orbit: 401 x 404 km, 51.6° (Epoch: 24 July)

Event Time Altitude Azimuth Distance (km) Brightness Sun altitude
Rises 00:20:11 0° 316° (NW) 2,348 1.4 -27.4°
Reaches altitude 10° 00:22:34 10° 332° (NNW) 1,479 0.4 -27.4°
Enters shadow 00:24:22 20° 1° (N) 1,001 -0.6 -27.5°
